Regional Weather Roundup
Issued by NWS

Home | Current Version | Previous Version | Graphics & Text | Print | Product List | Glossary On
Versions: 1 2 3 4 5 6 7 8 9 10 11 12 13 14 15 16 17 18 19 20 21 22 23 24 25 26 27
000
ASUS45 KCYS 152010
RWRWY

WYOMING REGIONAL WEATHER ROUNDUP
NATIONAL WEATHER SERVICE CHEYENNE WY
200 PM MDT SUN OCT 15 2017

NOTE:  "FAIR" INDICATES FEW OR NO CLOUDS BELOW 12,000 FEET
WITH NO SIGNIFICANT WEATHER AND/OR OBSTRUCTIONS TO VISIBILITY.

WYZ001-152100-
YELLOWSTONE NATIONAL PARK

CITY           SKY/WX    TMP DP  RH WIND       PRES   REMARKS
LK YELLOWSTONE   N/A     39  24  55 VRB5      30.52F
W YELLOWSTONE  NOT AVBL

$$
WYZ002>013-054>058-071-098>099-152100-
NORTHERN WYOMING

CITY           SKY/WX    TMP DP  RH WIND       PRES   REMARKS
JACKSON        FAIR      39  16  39 CALM      30.53F
CODY           FAIR      60  25  26 NW5       30.35F
GREYBULL       FAIR      55  22  27 SE8       30.37F
WORLAND        FAIR      56  25  30 E8        30.37F
SHERIDAN       FAIR      59  27  29 VRB6      30.32F
BUFFALO        FAIR      54  20  26 SE8       30.35F
GILLETTE       FAIR      54  25  32 VRB6      30.35F
HULETT         FAIR      54  27  35 W8        30.34F
NEWCASTLE      FAIR      54  23  30 NW18G25   30.37F

$$
WYZ014>020-022>026-101>103-152100-
CENTRAL WYOMING

CITY           SKY/WX    TMP DP  RH WIND       PRES   REMARKS
BIG PINEY      FAIR      51  19  28 CALM      30.49F
PINEDALE       FAIR      52  21  30 W6        30.49F
DUBOIS         FAIR      50  23  34 N21G29    30.42F
LANDER         FAIR      54  26  34 VRB5      30.39F
RIVERTON       FAIR      52  27  38 VRB6      30.40F
CASPER         FAIR      58  22  24 SW14G25   30.38F
DOUGLAS        FAIR      58  21  24 NW15G21   30.38F

$$
WYZ021-027>030-104>119-152100-
SOUTHERN WYOMING

CITY           SKY/WX    TMP DP  RH WIND       PRES   REMARKS
EVANSTON       FAIR      54  17  23 NE3       30.50F
KEMMERER       FAIR      52   9  17 SW8       30.51F
FORT BRIDGER   FAIR      53  13  21 CALM      30.53F
ROCK SPRINGS   FAIR      51   9  18 W9        30.50F
DIXON          FAIR      56  10  15 SW10G16   30.53F
RAWLINS        FAIR      53  14  21 W23G29    30.47F
SARATOGA       FAIR      55  16  21 SW14G24   30.49F
LARAMIE        FAIR      57  19  22 NW8       30.43F
CHEYENNE       FAIR      59  22  24 SE13      30.41F
TORRINGTON     FAIR      60  18  19 W9        30.37F
PINE BLUFFS    FAIR      61  19  20 N10G21    30.40F

$$




USA.gov is the U.S. government's official web portal to all federal, state and local government web resources and services.